Location: Codford Saint Peter
(51.1597°N, 2.0531°W)
Time: 02:40:35
(UTC+00:00)

FREGAT/IRIS - Pass Details

Date: 18 September 2020
Orbit: 310 x 312 km, 96.9° (Epoch: 19 October)

Event Time Altitude Azimuth Distance (km) Brightness Sun altitude
Exits shadow 19:06:07 13° 115° (ESE) 1,083 4.2 -8.8°
Maximum altitude 19:07:44 22° 69° (ENE) 791 3.7 -9.1°
Drops below altitude 10° 19:09:53 10° 15° (NNE) 1,255 5.2 -9.4°
Sets 19:12:01 0° 359° (N) 2,096 6.5 -9.7°
